Time,TemperatureF,DewpointF,PressureIn,WindDirection,WindDirectionDegrees,WindSpeedMPH,WindSpeedGustMPH,Humidity,HourlyPrecipIn,Conditions,Clouds,dailyrainin,SoftwareType,DateUTC
2013-04-02 00:01:00,25.7,16.3,29.80,NE,45,0.0,-999.0,67,-99.99,,,0.00,Acu-Link.com,2013-04-02 04:01:00,
2013-04-02 00:16:00,25.7,17.0,29.80,NNE,22,2.2,-999.0,69,-99.99,,,0.00,Acu-Link.com,2013-04-02 04:16:00,
2013-04-02 00:47:00,25.7,15.9,29.82,WNW,292,1.7,-999.0,66,-99.99,,,0.00,Acu-Link.com,2013-04-02 04:47:00,
2013-04-02 01:02:00,25.3,16.2,29.82,ESE,112,0.0,-999.0,68,-99.99,,,0.00,Acu-Link.com,2013-04-02 05:02:00,
2013-04-02 01:17:00,25.2,16.1,29.82,NE,45,2.2,-999.0,68,-99.99,,,0.00,Acu-Link.com,2013-04-02 05:17:00,
2013-04-02 01:32:00,24.3,15.6,29.82,East,90,0.0,-999.0,69,-99.99,,,0.00,Acu-Link.com,2013-04-02 05:32:00,
2013-04-02 01:47:00,24.1,16.1,29.82,East,90,1.7,-999.0,71,-99.99,,,0.00,Acu-Link.com,2013-04-02 05:47:00,
2013-04-02 02:02:00,24.6,16.2,29.82,WNW,292,3.2,-999.0,70,-99.99,,,0.00,Acu-Link.com,2013-04-02 06:02:00,
2013-04-02 02:17:00,25.5,17.1,29.82,NNE,22,0.0,-999.0,70,-99.99,,,0.00,Acu-Link.com,2013-04-02 06:17:00,
2013-04-02 02:32:00,24.6,16.6,29.82,West,270,2.7,-999.0,71,-99.99,,,0.00,Acu-Link.com,2013-04-02 06:32:00,
2013-04-02 02:47:00,25.7,15.9,29.82,West,270,2.2,-999.0,66,-99.99,,,0.00,Acu-Link.com,2013-04-02 06:47:00,
2013-04-02 03:02:00,26.2,15.7,29.82,West,270,1.7,-999.0,64,-99.99,,,0.00,Acu-Link.com,2013-04-02 07:02:00,
2013-04-02 03:18:00,27.7,16.8,29.82,NNE,22,2.2,-999.0,63,-99.99,,,0.00,Acu-Link.com,2013-04-02 07:18:00,
2013-04-02 03:33:00,27.7,16.0,29.83,West,270,2.7,-999.0,61,-99.99,,,0.00,Acu-Link.com,2013-04-02 07:33:00,
2013-04-02 03:48:00,28.9,18.3,29.83,NE,45,4.2,-999.0,64,-99.99,,,0.00,Acu-Link.com,2013-04-02 07:48:00,
2013-04-02 04:03:00,29.1,18.5,29.83,NNE,22,1.7,-999.0,64,-99.99,,,0.00,Acu-Link.com,2013-04-02 08:03:00,
2013-04-02 04:19:00,29.1,19.2,29.84,WNW,292,6.8,-999.0,66,-99.99,,,0.00,Acu-Link.com,2013-04-02 08:19:00,
2013-04-02 04:34:00,28.2,19.0,29.84,NE,45,2.7,-999.0,68,-99.99,,,0.00,Acu-Link.com,2013-04-02 08:34:00,
2013-04-02 04:50:00,27.5,19.0,29.84,NNE,22,2.7,-999.0,70,-99.99,,,0.00,Acu-Link.com,2013-04-02 08:50:00,
2013-04-02 05:05:00,27.1,18.6,29.84,WNW,292,0.0,-999.0,70,-99.99,,,0.00,Acu-Link.com,2013-04-02 09:05:00,
2013-04-02 05:20:00,26.6,18.2,29.85,SW,225,4.2,-999.0,70,-99.99,,,0.00,Acu-Link.com,2013-04-02 09:20:00,
2013-04-02 05:35:00,27.5,15.8,29.86,West,270,3.7,-999.0,61,-99.99,,,0.00,Acu-Link.com,2013-04-02 09:35:00,
2013-04-02 05:51:00,27.1,15.1,29.87,ENE,67,2.7,-999.0,60,-99.99,,,0.00,Acu-Link.com,2013-04-02 09:51:00,
2013-04-02 06:06:00,26.8,14.0,29.86,West,270,6.8,-999.0,58,-99.99,,,0.00,Acu-Link.com,2013-04-02 10:06:00,
2013-04-02 06:36:00,25.5,13.6,29.87,West,270,1.1,-999.0,60,-99.99,,,0.00,Acu-Link.com,2013-04-02 10:36:00,
2013-04-02 06:51:00,25.2,13.7,29.88,NW,315,0.0,-999.0,61,-99.99,,,0.00,Acu-Link.com,2013-04-02 10:51:00,
2013-04-02 07:06:00,25.0,13.8,29.89,NE,45,0.0,-999.0,62,-99.99,,,0.00,Acu-Link.com,2013-04-02 11:06:00,
2013-04-02 07:21:00,25.0,13.8,29.90,NE,45,1.7,-999.0,62,-99.99,,,0.00,Acu-Link.com,2013-04-02 11:21:00,
2013-04-02 07:36:00,25.3,13.4,29.90,West,270,2.7,-999.0,60,-99.99,,,0.00,Acu-Link.com,2013-04-02 11:36:00,
2013-04-02 07:51:00,26.1,13.8,29.91,ENE,67,3.2,-999.0,59,-99.99,,,0.00,Acu-Link.com,2013-04-02 11:51:00,
2013-04-02 08:07:00,27.5,13.9,29.92,NE,45,2.7,-999.0,56,-99.99,,,0.00,Acu-Link.com,2013-04-02 12:07:00,
2013-04-02 08:37:00,28.9,14.4,29.93,West,270,4.7,-999.0,54,-99.99,,,0.00,Acu-Link.com,2013-04-02 12:37:00,
2013-04-02 08:52:00,29.1,14.1,29.93,NE,45,5.8,-999.0,53,-99.99,,,0.00,Acu-Link.com,2013-04-02 12:52:00,
2013-04-02 09:07:00,30.0,15.0,29.93,West,270,8.9,-999.0,53,-99.99,,,0.00,Acu-Link.com,2013-04-02 13:07:00,
2013-04-02 09:22:00,30.7,13.4,29.93,WSW,247,11.4,-999.0,48,-99.99,,,0.00,Acu-Link.com,2013-04-02 13:22:00,
2013-04-02 09:37:00,30.7,13.8,29.93,SSW,202,6.8,-999.0,49,-99.99,,,0.00,Acu-Link.com,2013-04-02 13:37:00,
2013-04-02 09:52:00,30.9,13.1,29.93,West,270,6.3,-999.0,47,-99.99,,,0.00,Acu-Link.com,2013-04-02 13:52:00,
2013-04-02 10:07:00,31.1,14.2,29.94,WSW,247,6.8,-999.0,49,-99.99,,,0.00,Acu-Link.com,2013-04-02 14:07:00,
2013-04-02 10:23:00,33.4,14.4,29.93,NE,45,3.2,-999.0,45,-99.99,,,0.00,Acu-Link.com,2013-04-02 14:23:00,
2013-04-02 10:38:00,32.5,14.0,29.94,West,270,4.2,-999.0,46,-99.99,,,0.00,Acu-Link.com,2013-04-02 14:38:00,
2013-04-02 10:53:00,32.5,12.0,29.94,WNW,292,8.3,-999.0,42,-99.99,,,0.00,Acu-Link.com,2013-04-02 14:53:00,
2013-04-02 11:08:00,32.7,14.7,29.94,SW,225,4.7,-999.0,47,-99.99,,,0.00,Acu-Link.com,2013-04-02 15:08:00,
2013-04-02 11:23:00,34.3,15.2,29.94,West,270,14.5,-999.0,45,-99.99,,,0.00,Acu-Link.com,2013-04-02 15:23:00,
2013-04-02 11:38:00,35.2,13.9,29.94,West,270,8.9,-999.0,41,-99.99,,,0.00,Acu-Link.com,2013-04-02 15:38:00,
2013-04-02 12:08:00,37.4,12.9,29.93,West,270,3.7,-999.0,36,-99.99,,,0.00,Acu-Link.com,2013-04-02 16:08:00,
2013-04-02 12:23:00,36.5,12.1,29.92,NE,45,12.5,-999.0,36,-99.99,,,0.00,Acu-Link.com,2013-04-02 16:23:00,
2013-04-02 12:39:00,36.9,12.5,29.91,SW,225,9.4,-999.0,36,-99.99,,,0.00,Acu-Link.com,2013-04-02 16:39:00,
2013-04-02 12:54:00,38.1,12.9,29.92,WNW,292,9.4,-999.0,35,-99.99,,,0.00,Acu-Link.com,2013-04-02 16:54:00,
2013-04-02 13:09:00,37.6,12.5,29.90,NNE,22,4.2,-999.0,35,-99.99,,,0.00,Acu-Link.com,2013-04-02 17:09:00,
2013-04-02 13:24:00,39.0,12.4,29.91,West,270,9.9,-999.0,33,-99.99,,,0.00,Acu-Link.com,2013-04-02 17:24:00,
2013-04-02 13:39:00,39.0,12.4,29.90,South,180,11.4,-999.0,33,-99.99,,,0.00,Acu-Link.com,2013-04-02 17:39:00,
2013-04-02 13:54:00,38.8,12.2,29.89,SSE,157,6.3,-999.0,33,-99.99,,,0.00,Acu-Link.com,2013-04-02 17:54:00,
2013-04-02 14:09:00,41.2,15.0,29.88,West,270,6.3,-999.0,34,-99.99,,,0.00,Acu-Link.com,2013-04-02 18:09:00,
2013-04-02 14:24:00,39.2,12.5,29.88,ESE,112,7.8,-999.0,33,-99.99,,,0.00,Acu-Link.com,2013-04-02 18:24:00,
2013-04-02 14:40:00,38.1,12.2,29.88,West,270,8.9,-999.0,34,-99.99,,,0.00,Acu-Link.com,2013-04-02 18:40:00,
2013-04-02 14:55:00,40.5,13.7,29.88,West,270,13.0,-999.0,33,-99.99,,,0.00,Acu-Link.com,2013-04-02 18:55:00,
2013-04-02 15:10:00,39.4,12.7,29.88,West,270,8.3,-999.0,33,-99.99,,,0.00,Acu-Link.com,2013-04-02 19:10:00,
2013-04-02 15:25:00,39.9,12.5,29.88,West,270,4.2,-999.0,32,-99.99,,,0.00,Acu-Link.com,2013-04-02 19:25:00,
2013-04-02 15:40:00,39.7,14.3,29.87,NNE,22,6.8,-999.0,35,-99.99,,,0.00,Acu-Link.com,2013-04-02 19:40:00,
2013-04-02 15:55:00,42.4,14.7,29.87,West,270,7.8,-999.0,32,-99.99,,,0.00,Acu-Link.com,2013-04-02 19:55:00,
2013-04-02 16:10:00,38.5,13.3,29.88,ENE,67,4.2,-999.0,35,-99.99,,,0.00,Acu-Link.com,2013-04-02 20:10:00,
2013-04-02 16:25:00,39.4,13.4,29.87,NE,45,10.4,-999.0,34,-99.99,,,0.00,Acu-Link.com,2013-04-02 20:25:00,
2013-04-02 16:40:00,41.0,14.8,29.88,West,270,8.3,-999.0,34,-99.99,,,0.00,Acu-Link.com,2013-04-02 20:40:00,
2013-04-02 16:56:00,40.3,12.8,29.88,SE,135,11.4,-999.0,32,-99.99,,,0.00,Acu-Link.com,2013-04-02 20:56:00,
2013-04-02 17:11:00,40.6,14.5,29.89,ENE,67,8.9,-999.0,34,-99.99,,,0.00,Acu-Link.com,2013-04-02 21:11:00,
2013-04-02 17:41:00,41.0,14.1,29.89,West,270,4.2,-999.0,33,-99.99,,,0.00,Acu-Link.com,2013-04-02 21:41:00,
2013-04-02 17:56:00,40.5,12.3,29.89,ENE,67,8.9,-999.0,31,-99.99,,,0.00,Acu-Link.com,2013-04-02 21:56:00,
2013-04-02 18:11:00,40.3,12.1,29.91,SW,225,5.3,-999.0,31,-99.99,,,0.00,Acu-Link.com,2013-04-02 22:11:00,
2013-04-02 18:26:00,39.0,10.2,29.91,East,90,13.0,-999.0,30,-99.99,,,0.00,Acu-Link.com,2013-04-02 22:26:00,
2013-04-02 18:41:00,37.2,10.1,29.91,East,90,4.7,-999.0,32,-99.99,,,0.00,Acu-Link.com,2013-04-02 22:41:00,
2013-04-02 18:56:00,36.9,9.8,29.92,West,270,8.3,-999.0,32,-99.99,,,0.00,Acu-Link.com,2013-04-02 22:56:00,
2013-04-02 19:12:00,36.3,10.0,29.92,ENE,67,3.7,-999.0,33,-99.99,,,0.00,Acu-Link.com,2013-04-02 23:12:00,
2013-04-02 19:27:00,35.8,10.2,29.93,ENE,67,4.7,-999.0,34,-99.99,,,0.00,Acu-Link.com,2013-04-02 23:27:00,
2013-04-02 19:42:00,34.9,9.4,29.93,East,90,2.2,-999.0,34,-99.99,,,0.00,Acu-Link.com,2013-04-02 23:42:00,
2013-04-02 19:57:00,34.3,9.5,29.94,NE,45,2.2,-999.0,35,-99.99,,,0.00,Acu-Link.com,2013-04-02 23:57:00,
2013-04-02 20:12:00,34.2,9.4,29.94,SW,225,1.1,-999.0,35,-99.99,,,0.00,Acu-Link.com,2013-04-03 00:12:00,
2013-04-02 20:27:00,33.6,10.1,29.94,NE,45,4.2,-999.0,37,-99.99,,,0.00,Acu-Link.com,2013-04-03 00:27:00,
2013-04-02 20:42:00,33.6,10.7,29.96,NE,45,4.2,-999.0,38,-99.99,,,0.00,Acu-Link.com,2013-04-03 00:42:00,
2013-04-02 20:57:00,32.5,10.3,29.97,WSW,247,2.2,-999.0,39,-99.99,,,0.00,Acu-Link.com,2013-04-03 00:57:00,
2013-04-02 21:12:00,32.5,10.3,29.97,WNW,292,5.8,-999.0,39,-99.99,,,0.00,Acu-Link.com,2013-04-03 01:12:00,
2013-04-02 21:28:00,32.0,10.4,29.97,NE,45,7.3,-999.0,40,-99.99,,,0.00,Acu-Link.com,2013-04-03 01:28:00,
2013-04-02 21:43:00,32.2,10.1,29.98,NE,45,3.7,-999.0,39,-99.99,,,0.00,Acu-Link.com,2013-04-03 01:43:00,
2013-04-02 21:58:00,32.0,10.4,29.98,NE,45,8.3,-999.0,40,-99.99,,,0.00,Acu-Link.com,2013-04-03 01:58:00,
2013-04-02 22:13:00,31.8,9.7,29.98,West,270,2.7,-999.0,39,-99.99,,,0.00,Acu-Link.com,2013-04-03 02:13:00,
2013-04-02 22:28:00,31.5,10.5,29.98,West,270,1.7,-999.0,41,-99.99,,,0.00,Acu-Link.com,2013-04-03 02:28:00,
2013-04-02 22:43:00,30.6,10.8,29.98,ENE,67,2.7,-999.0,43,-99.99,,,0.00,Acu-Link.com,2013-04-03 02:43:00,
2013-04-02 22:58:00,29.3,11.1,29.99,SSW,202,1.7,-999.0,46,-99.99,,,0.00,Acu-Link.com,2013-04-03 02:58:00,
2013-04-02 23:13:00,29.1,10.9,29.98,ESE,112,0.0,-999.0,46,-99.99,,,0.00,Acu-Link.com,2013-04-03 03:13:00,
2013-04-02 23:28:00,28.6,11.0,29.99,NNE,22,1.7,-999.0,47,-99.99,,,0.00,Acu-Link.com,2013-04-03 03:28:00,
2013-04-02 23:44:00,28.4,11.7,29.98,NE,45,1.1,-999.0,49,-99.99,,,0.00,Acu-Link.com,2013-04-03 03:44:00,
2013-04-02 23:59:00,27.9,14.7,29.98,NW,315,1.1,-999.0,57,-99.99,,,0.00,Acu-Link.com,2013-04-03 03:59:00,